Tracking 28356 objects as of 8-Dec-2023
HD Live streaming from Space Station
objects crossing your sky now

STARLINK-5293

Track STARLINK-5293 now!
10-day predictions
STARLINK-5293 is classified as:


NORAD ID: 55295
Int'l Code: 2023-010AC
Perigee: 577.8 km
Apogee: 580.5 km
Inclination: 70.0 °
Period: 96.1 minutes
Semi major axis: 6950 km
RCS: Unknown
Launch date: January 19, 2023
Source: United States (US)
Launch site: AIR FORCE WESTERN TEST RANGE (AFWTR)
Your satellite tracking list
Your tracking list is empty




NASA's NSSDC Master Catalog

Two Line Element Set (TLE):
1 55295U 23010AC  23341.34576690 -.00000645  00000-0 -46266-4 0  9990
2 55295  70.0007 320.5324 0001946 272.8621  87.2315 14.98329670 49456
Source of the keplerian elements: AFSPC